Regional Weather Roundup
Issued by NWS Midland/Odessa, TX

Skip options and go directly to product.
Home | Oldest Version | Previous Version | Current Version | All | Text Only | Save Text | Print | Product List | Glossary Off

Skip product version selection by date and time.   

832
ASUS44 KMAF 271810
RWRMAF
MIDLAND AREA WEATHER ROUNDUP
NATIONAL WEATHER SERVICE MIDLAND TX
100 PM CDT SAT AUG 27 2016

...IN SOUTHWEST TEXAS AND SOUTHEAST NEW MEXICO...

CITY           SKY/WX    TMP DP  RH WIND       PRES   REMARKS
ALPINE         PTSUNNY   80  59  49 SW12G17   30.21F
ANDREWS        NOT AVBL
ARTESIA        SUNNY     79  63  57 VRB6      30.10F
BIG SPRING     MOSUNNY   85  64  47 SE7       30.09F
CARLSBAD       SUNNY     80  63  55 MISG      30.07F
DRYDEN           N/A     83  70  64 VRB7      30.04F
FORT STOCKTON  MOSUNNY   84  63  49 MISG      30.08F
GUAD PASS      SUNNY     77  62  59 SW12      30.23S
HOBBS          MOSUNNY   81  63  54 SE7       30.12F
MARFA          MOSUNNY  N/A N/A N/A VRB5      30.20F
MIDLAND AIRPK  SUNNY     87  58  37 SW10G18   30.08F
MIDLAND INTL   SUNNY     86  62  44 S12       30.07F HAZE
ODESSA         SUNNY     85  61  44 S13       30.09F
PECOS          SUNNY     82  64  55 CALM      30.06S
PRESIDIO       NOT AVBL
SEMINOLE       SUNNY     80  62  53 CALM      30.11S
SNYDER           N/A     83  68  59 SW5       30.08F
WINK           SUNNY     84  62  47 VRB5      30.05F
$$
...OTHER STATIONS IN TEXAS...

CITY           SKY/WX    TMP DP  RH WIND       PRES   REMARKS
ABILENE        SUNNY     88  68  51 CALM      30.05F
AMARILLO       SUNNY     83  61  47 S15       30.10F
AUSTIN         MOSUNNY   88  72  58 NE6       30.00F
BROWNSVILLE    PTSUNNY   93  73  52 NE8       29.94F HX 102
CORPUS CHRISTI PTSUNNY   90  74  59 NE7       29.96F
DALLAS FTW     PTSUNNY   87  69  54 S5        30.01F
DEL RIO        MOSUNNY   89  71  55 CALM      29.99F
EL PASO        MOSUNNY   82  61  48 VRB3      30.10F
HOUSTON INT    CLOUDY    86  74  67 NE6       29.98F
LUBBOCK        MOSUNNY   84  62  47 W7G21     30.10F
SAN ANGELO     MOSUNNY   91  63  39 VRB6      30.04F
SAN ANTONIO    MOSUNNY   87  70  56 CALM      30.01F
WACO           PTSUNNY   87  73  62 VRB3      30.02F
WICHITA FALLS  NOT AVBL
$$
...OTHER LOCATIONS IN NEW MEXICO...

CITY           SKY/WX    TMP DP  RH WIND       PRES   REMARKS
ALAMAGORDO     SUNNY     79  59  50 S7        30.14F
ALBUQUERQUE    MOSUNNY   76  50  40 W9        30.20F
CANNON AFB     MOSUNNY   83  55  37 S14       30.13F
CLOVIS         SUNNY     81  59  47 SW12G17   30.13F
HOLLOMAN AFB   SUNNY     80  61  53 VRB7      30.11F
ROSWELL        SUNNY     83  56  39 VRB5      30.09F
RUIDOSO          N/A     70  46  43 CALM      30.30F
SANTA FE       SUNNY     73  48  41 VRB6      30.25F
TRUTH OR CONSE SUNNY     79  54  41 S7        30.15F
TUCUMCARI      SUNNY     86  53  32 SW13      30.08F
$$

USA.gov is the U.S. government's official web portal to all federal, state and local government web resources and services.